Regional Weather Roundup
Issued by NWS

Home | Current Version | Previous Version | Graphics & Text | Print | Product List | Glossary On
Versions: 1 2 3 4 5 6 7 8 9 10 11 12 13 14 15 16 17 18 19 20 21 22 23 24 25 26 27 28 29 30 31 32 33 34 35 36 37 38 39 40 41 42 43 44 45 46 47 48 49 50
000
ASUS45 KSLC 190710
RWRUT

UTAH REGIONAL WEATHER ROUNDUP
NATIONAL WEATHER SERVICE SALT LAKE CITY UT
100 AM MDT SUN OCT 19 2014

UTZ001>011-023>025-190800-

NORTHERN UTAH

CITY           SKY/WX    TMP DP  RH WIND       PRES   REMARKS
BRIGHAM CITY   CLEAR     46  38  73 NW3       30.06F
HILL AFB       CLEAR     54  32  43 SE16      30.07F
LOGAN          CLEAR     47  37  68 CALM      30.09S
OGDEN          CLEAR     50  33  52 S7        30.06S
PROVO AIRPORT  CLEAR     46  34  61 CALM      30.09S
SALT LAKE CITY CLEAR     49  40  71 SE7       30.05F
VERNAL         CLEAR     45  32  60 W5        30.10F
WENDOVER       CLEAR     48  32  53 CALM      30.07S
HEBER CITY     CLEAR     36  30  80 CALM      30.14S
WEST JORDAN    CLEAR     46  37  71 SW5       30.08S

$$

UTZ012>022-026-027-190800-

SOUTHERN/CENTRAL UTAH

CITY           SKY/WX    TMP DP  RH WIND       PRES   REMARKS
BLANDING       CLEAR     52  33  48 N8        30.19S
BRYCE CANYON   CLEAR     36  31  82 W6        30.22S WCI  31
CEDAR CITY     PTCLDY    51  41  68 N7        30.09F
DELTA          CLEAR     49  33  54 E3        30.08S
HANKSVILLE       N/A     55  32  41 CALM      30.08S
MILFORD        CLEAR     53  37  54 CALM      30.07F
MOAB/CYNLANDS  CLEAR     50  33  52 SW3       30.05S
PRICE          CLEAR     49  29  46 N8        30.13S
ST GEORGE      SUNNY     63  36  36 SE5       29.96S
KANAB            N/A     54  36  50 NW15      30.09F

$$

REGIONAL REPORTS     COLORADO/ARIZONA

CITY           SKY/WX    TMP DP  RH WIND       PRES   REMARKS
CRAIG, CO      CLEAR     33  28  81 CALM      30.17S
GRAND JUNCTION MOCLDY    51  33  50 CALM      30.08S
RIFLE          MOCLDY    51  37  58 CALM      30.13S
MONTROSE       CLOUDY    54  38  54 SE6       30.15S
CORTEZ         PTCLDY    46  38  73 CALM      30.14S
PAGE, AZ       NOT AVBL
GRAND CANYON   PTCLDY    39  27  62 CALM      30.14F
KINGMAN        CLEAR     55  43  63 E5        29.94F
FLAGSTAFF      CLEAR     41  36  82 CALM      30.15F

$$

REGIONAL REPORTS    NEVADA/IDAHO/WYOMING

CITY           SKY/WX    TMP DP  RH WIND       PRES   REMARKS
LAS VEGAS, NV  CLEAR     71  41  33 S8        29.85F
ELY            CLEAR     40  30  67 S7        30.14S
ELKO           CLEAR     39  18  42 W3        30.07S
POCATELLO, ID  CLEAR     39  33  79 E5        30.10S
BURLEY         PTCLDY    40  32  73 CALM      30.07R
EVANSTON, WY   PTCLDY    45  28  51 SE7       30.19F
ROCK SPRINGS   PTCLDY    46  26  45 CALM      30.16S
KEMMERER       PTCLDY    39  30  70 NW8       30.20S WCI  34

$$



USA.gov is the U.S. government's official web portal to all federal, state and local government web resources and services.